User: anonymous   Login
Location: Sungai Bunut
(2.6333°N, 113.7333°E)
Time: 06:02:21
(UTC+00:00)
Language:

ARIANE 5 DEB (SYLDA) - Orbit

View from above orbital plane
View from above orbital plane
View from above satellite
View from above satellite

Ground track
Ground track

The orbit data is extracted from the following two-line orbital elements,

1 27463U 02035D   22021.54753510 -.00000045  00000-0 -23206-3 0  9996
2 27463   5.3852 269.8402 7130106 113.3713 277.1273  2.26520392161621
Epoch (UTC): 21 January 2022 13:08:27
Eccentricity: 0.7130106
inclination: 5.3852°
perigee height: 650 km
apogee height: 35574 km
right ascension of ascending node: 269.8402°
argument of perigee: 113.3713°
revolutions per day: 2.26520392
mean anomaly at epoch: 277.1273°
orbit number at epoch: 16162

The dashed part of the orbit path shows where the satellite is in the earth's shadow,  

DLR